Location: C�mpuri de-Sus
(45.9500°N, 22.5500°E)
Time: 13:29:38
(UTC+00:00)

Cosmos 304 Rocket - Pass Details

Date: 24 October 2021
Orbit: 678 x 688 km, 74.0° (Epoch: 06 December)

Event Time Altitude Azimuth Distance (km) Brightness Sun altitude
Rises 17:18:50 0° 211° (SSW) 3,025 7.5 -19.8°
Reaches altitude 10° 17:21:09 10° 215° (SW) 2,115 6.7 -20.2°
Maximum altitude 17:25:51 58° 295° (WNW) 795 4.3 -21.1°
Drops below altitude 10° 17:30:35 10° 15° (NNE) 2,136 6.2 -21.9°
Enters shadow 17:32:22 - 18° (NNE) 2,827 6.8 -22.2°
